This demonstration page uses our WeatherBlox Daily Observations layout. Learn more.

40.92945, -100.16068

Hourly Observations for June 6, 2017

Temp ( °F °C ) Dew Point ( °F °C ) Humidity (%) Winds ( mph kmh ) Pressure ( in mb ) Visibility ( mi km ) Precip ( " mm )
12:15 am 00:15 Partly Cloudy 72 22.1 61 16.2 69 69 NW 3 6 29.88 1012 10 16.0934 0 0
12:35 am 00:35 Cloudy 71 21.7 62 16.8 74 74 Calm 29.88 1012 10 16.0934 0 0
12:55 am 00:55 Mostly Cloudy 71 21.5 64 17.7 79 79 Calm 29.88 1012 7 11.26538 0 0
1:15 am 01:15 Clear 70 21.2 61 16 72 72 Calm 29.88 1012 10 16.0934 0 0
1:35 am 01:35 Partly Cloudy 70 21.1 62 16.5 75 75 N 3 6 29.88 1012 10 16.0934 0 0
1:55 am 01:55 Partly Cloudy 70 21.1 61 16.3 74 74 N 5 7 29.88 1012 10 16.0934 0 0
2:15 am 02:15 Partly Cloudy 70 21.3 60 15.7 71 71 Calm 29.88 1012 10 16.0934 0 0
2:35 am 02:35 Clear 70 20.9 60 15.7 72 72 NNE 3 6 29.88 1012 10 16.0934 0 0
2:55 am 02:55 Clear 68 19.9 61 16.3 80 80 NNW 3 6 29.88 1012 10 16.0934 0 0
3:15 am 03:15 Clear 70 20.9 59 15.2 70 70 Calm 29.88 1012 10 16.0934 0 0
3:35 am 03:35 Clear 68 20 60 15.7 76 76 W 5 7 29.88 1012 10 16.0934 0 0
3:55 am 03:55 Clear 68 20 60 15.6 76 76 NNW 5 7 29.91 1013 10 16.0934 0 0
4:15 am 04:15 Clear 66 19.1 60 15.5 80 80 NE 5 7 29.94 1014 10 16.0934 0 0
4:35 am 04:35 Clear 69 20.4 59 14.9 71 71 Calm 29.91 1013 10 16.0934 0 0
4:55 am 04:55 Clear 68 19.8 59 15 74 74 Calm 29.94 1014 10 16.0934 0 0
5:15 am 05:15 Partly Cloudy 66 18.8 60 15.8 83 83 NNW 5 7 29.94 1014 10 16.0934 0 0
5:35 am 05:35 Mostly Cloudy 66 19 61 15.9 82 82 WNW 6 9 29.94 1014 10 16.0934 0 0
5:55 am 05:55 Partly Cloudy 66 19.1 60 15.6 80 80 WNW 5 7 29.94 1014 10 16.0934 0 0
6:15 am 06:15 Partly Cloudy 66 19 60 15.5 80 80 WNW 6 9 29.94 1014 10 16.0934 0 0
6:35 am 06:35 Partly Cloudy 66 19 60 15.6 81 81 Calm 29.94 1014 10 16.0934 0 0
6:55 am 06:55 Cloudy 67 19.2 61 16.2 83 83 Calm 29.97 1015 10 16.0934 0 0
7:15 am 07:15 Cloudy with Light Rain 67 19.7 61 16 79 79 NNE 6 9 29.97 1015 10 16.0934 0 0
7:35 am 07:35 Cloudy with Light Rain 67 19.6 61 16 80 80 ENE 9 15 29.97 1015 7 11.26538 0.01 0.254
7:55 am 07:55 Mostly Cloudy 67 19.5 60 15.7 79 79 ENE 6 9 29.97 1015 10 16.0934 0.01 0.254
8:15 am 08:15 Mostly Cloudy 66 19.1 60 15.4 79 79 NE 7 11 29.97 1015 10 16.0934 0 0
8:35 am 08:35 Partly Cloudy 66 19.1 60 15.3 79 79 E 7 11 29.97 1015 10 16.0934 0 0
8:55 am 08:55 Sunny 66 19.1 59 15 77 77 E 7 11 29.97 1015 10 16.0934 0 0
9:15 am 09:15 Sunny 67 19.5 59 15 75 75 ESE 7 11 29.97 1015 10 16.0934 0 0
9:35 am 09:35 Sunny 67 19.6 59 15 75 75 ESE 10 17 29.97 1015 10 16.0934 0 0
9:55 am 09:55 Sunny 67 19.7 59 15 74 74 ESE 12 19 29.97 1015 10 16.0934 0 0
10:15 am 10:15 Sunny 71 21.4 61 16 71 71 ESE 9 15 29.94 1014 10 16.0934 0 0
10:35 am 10:35 Sunny 73 22.5 60 15.8 66 66 E 13 20 29.94 1014 10 16.0934 0 0
10:55 am 10:55 Sunny 73 22.7 61 16 66 66 E 12 19 29.94 1014 10 16.0934 0 0
11:15 am 11:15 Sunny 74 23.4 61 16 63 63 E 9 15 29.94 1014 10 16.0934 0 0
11:35 am 11:35 Sunny 73 23 60 15.3 62 62 ESE 9 15 29.94 1014 10 16.0934 0 0
11:55 am 11:55 Sunny 74 23.2 59 15.2 61 61 ESE 10 17 29.94 1014 10 16.0934 0 0
12:15 pm 12:15 Partly Cloudy 74 23.5 60 15.4 61 61 SE 8 13 29.94 1014 10 16.0934 0 0
12:35 pm 12:35 Mostly Cloudy 74 23.4 59 15.1 60 60 SSE 9 15 29.94 1014 10 16.0934 0 0
12:55 pm 12:55 Cloudy 74 23.4 59 15 59 59 SE 8 13 29.94 1014 10 16.0934 0 0
1:15 pm 13:15 Cloudy with Light Rain 74 23.3 60 15.8 63 63 ESE 5 7 29.94 1014 10 16.0934 0 0
1:35 pm 13:35 Cloudy with Light Rain 74 23.6 61 16.2 63 63 Calm 29.94 1014 10 16.0934 0 0
1:55 pm 13:55 Mostly Cloudy 76 24.6 60 15.8 58 58 S 3 6 29.91 1013 10 16.0934 0 0
2:15 pm 14:15 Mostly Cloudy 76 24.7 59 15 55 55 Calm 29.91 1013 10 16.0934 0 0
2:35 pm 14:35 Cloudy 78 25.6 60 15.7 54 54 SE 3 6 29.91 1013 10 16.0934 0 0
2:55 pm 14:55 Cloudy 78 25.7 60 15.7 54 54 ESE 5 7 29.91 1013 10 16.0934 0 0
3:15 pm 15:15 Cloudy 78 25.4 60 15.5 54 54 E 5 7 29.94 1014 10 16.0934 0 0
3:35 pm 15:35 Partly Cloudy 78 25.8 60 15.5 53 53 ENE 3 6 29.91 1013 10 16.0934 0 0
3:55 pm 15:55 Sunny 79 26 61 15.9 54 54 NNE 6 9 29.91 1013 10 16.0934 0 0
4:15 pm 16:15 Sunny 77 25 64 17.5 63 63 NE 16 26 29.91 1013 10 16.0934 0 0
4:35 pm 16:35 Sunny 75 24.1 63 17.3 66 66 NE 8 13 29.91 1013 10 16.0934 0 0
4:55 pm 16:55 Sunny 75 23.7 63 17.1 67 67 NE 10 17 29.91 1013 10 16.0934 0 0
5:15 pm 17:15 Sunny 75 24 63 17.4 67 67 ENE 9 15 29.91 1013 10 16.0934 0 0
5:35 pm 17:35 Sunny 76 24.7 64 17.5 64 64 ENE 9 15 29.91 1013 10 16.0934 0 0
5:55 pm 17:55 Sunny 76 24.3 63 17.1 64 64 E 8 13 29.91 1013 10 16.0934 0 0
6:15 pm 18:15 Sunny 75 24 63 17 65 65 E 7 11 29.91 1013 10 16.0934 0 0
6:35 pm 18:35 Sunny 75 24.1 63 17.2 65 65 E 7 11 29.91 1013 10 16.0934 0 0
6:55 pm 18:55 Sunny 75 24.1 63 17 65 65 E 8 13 29.91 1013 10 16.0934 0 0
7:15 pm 19:15 Partly Cloudy 76 24.6 63 17 63 63 E 6 9 29.91 1013 10 16.0934 0 0
7:35 pm 19:35 Sunny 76 24.6 62 16.5 61 61 ESE 6 9 29.91 1013 10 16.0934 0 0
7:55 pm 19:55 Sunny 76 24.6 61 15.9 58 58 SE 5 7 29.91 1013 10 16.0934 0 0
8:15 pm 20:15 Sunny 76 24.5 60 15.6 58 58 SE 3 6 29.91 1013 10 16.0934 0 0
8:35 pm 20:35 Sunny 75 23.8 61 16.1 62 62 Calm 29.91 1013 10 16.0934 0 0
8:55 pm 20:55 Sunny 73 22.7 62 16.8 69 69 S 3 6 29.94 1014 10 16.0934 0 0
9:15 pm 21:15 Clear 72 22.2 62 16.7 71 71 S 3 6 29.94 1014 10 16.0934 0 0
9:35 pm 21:35 Clear 72 22 62 16.4 71 71 SSE 5 7 29.94 1014 10 16.0934 0 0
9:55 pm 21:55 Clear 70 21.1 62 16.6 76 76 S 3 6 29.97 1015 10 16.0934 0 0
10:15 pm 22:15 Clear 71 21.4 62 16.5 74 74 Calm 29.97 1015 10 16.0934 0 0
10:35 pm 22:35 Partly Cloudy 70 21 62 16.6 76 76 Calm 29.97 1015 10 16.0934 0 0
10:55 pm 22:55 Cloudy 68 19.8 63 17.3 86 86 Calm 30.03 1017 10 16.0934 0 0
11:15 pm 23:15 Mostly Cloudy 67 19.7 63 17.1 85 85 Calm 30.03 1017 10 16.0934 0 0
11:35 pm 23:35 Partly Cloudy 67 19.6 62 16.7 83 83 NW 3 6 30.03 1017 10 16.0934 0 0
11:55 pm 23:55 Mostly Cloudy 66 19 62 16.6 86 86 Calm 30.03 1017 10 16.0934 0 0

Powered by AerisWeather